Presure
153 140 148 134 140 130 129 139 127 137 179 140 169 170 153 156 126 116 138 126 119 128 150 142 143 132 151 182 171 142 138 203 136 127 124 134 156 135 145 174 190 113 145
226 125 181 220 135 125 146 119 118 145 156 177 164 131 171 152 136 125 131 130 131 124 129 124 142 174 147 134 182 184 176 131 133 134 140 152 182 184 199 140 175 135 145
212 193 194 221 124 131 126 150 151 158 134 156 177 153 111 139 134 128 148 136 124 131 126 129 132 125 170 160 170 123 133 136 136 138 161 141 203 147 201 130 162 143 154
183 231 301 159 204 130 151 146 151 136 135 170 157 125 121 133 148 158 136 137 137 147 137 215 170 132 146 145 164 198 151 142 171 162 163 200 195 157 181 150 181 181 115
152 150 291 153 191 156 137 135 150 150 143 144 153 157 131 137 142 146 147 161 140 136 132 128 151 143 136 157 130 136 141 142 156 161 167 179 161 128 115 135 112 121 185
135 147 154 158 368 234 144 148 144 159 159 148 131 124 144 170 151 142 151 150 155 124 138 140 132 158 141 131 132 131 126 139 162 159 121 132 129 122 162 119 116 110 159
133 134 141 432 183 387 151 144 133 132 144 154 156 155 135 131 164 133 157 130 132 132 135 131 127 126 144 162 147 146 141 138 126 128 146 125 114 119 136 131 130 154 125
316 242 144 149 155 161 164 151 161 149 135 138 147 161 116 191 129 142 131 167 142 144 139 136 142 168 118 203 92 99 141 137 129 125 140 121 127 122 126 134 125 157 156
296 310 146 153 148 154 165 144 149 146 180 150 161 164 175 143 180 127 144 143 122 119 133 136 127 130 130 142 142 137 136 144 139 137 146 129 125 129 120 132 106 147 155
83 174 193 143 324 149 501 149 150 144 144 145 146 151 178 135 181 155 142 136 137 147 133 134 134 146 154 134 131 135 156 166 157 126 127 127 123 121 120 135 138 179 123
276 278 269 207 148 139 168 169 133 236 139 147 152 154 143 155 129 183 157 152 159 134 136 158 144 153 154 133 177 167 156 147 147 143 129 132 131 125 133 123 134 134 130
271 280 281 276 284 300 151 132 131 322 190 154 157 146 143 123 136 148 135 141 123 149 148 126 127 132 134 133 151 137 139 137 126 122 125 131 132 133 114 132 131 132 173
253 229 148 173 277 273 279 286 253 144 134 140 133 139 144 143 141 142 148 131 147 140 126 126 126 130 140 144 143 131 127 130 148 140 125 130 121 121 138 175 178 174 139
248 241 240 268 266 264 261 258 258 201 225 141 136 138 137 144 142 137 147 151 141 137 142 141 146 150 138 128 171 241 147 145 129 133 132 130 134 135 139 154 201 112 186
176 179 225 252 262 262 252 249 249 256 206 167 144 143 141 246 151 139 150 153 136 142 147 139 451 408 493 130 131 134 134 134 134 135 140 154 224 209 131 162 201 151 138
233 246 245 236 257 165 163 163 165 164 236 169 128 131 136 141 146 145 166 145 150 139 397 383 140 141 139 136 135 140 143 354 354 288 266 254 244 235 230 222 216 217 215
241 234 238 240 234 233 245 250 252 254 251 250 239 177 263 263 242 259 188 225 188 142 143 160 203 395 472 375 240 275 482 445 444 460 358 299 280 357 370 288 257 178 212
224 219 233 242 188 244 248 246 241 242 240 241 233 199 229 239 187 145 198 195 150 254 277 296 311 335 335 299 348 418 485 488 482 482 477 429 392 366 256 252 311 299 311
242 240 239 220 239 238 240 243 231 239 226 169 236 241 248 241 163 150 231 258 261 268 261 257 279 289 293 306 312 315 314 317 323 329 331 325 318 312 311 314 308 279 212
219 213 230 230 235 232 231 237 238 246 239 217 226 237 246 229 242 241 239 229 239 249 251 257 247 266 264 272 280 279 279 276 285 277 154 266 276 280 282 280 275 274 274
234 231 230 243 235 230 234 231 246 231 221 217 237 241 242 241 240 232 245 233 228 213 186 236 218 246 216 215 252 126 127 223 159 259 263 263 262 262 262 262 263 268 265
250 246 226 225 236 248 261 246 235 249 254 254 243 241 255 255 196 237 248 227 246 236 240 192 188 221 226 237 162 221 235 200 233 237 197 166 207 249 248 246 246 241 235
259 263 263 260 251 245 246 239 239 238 239 239 238 237 237 237 234 239 242 239 240 213 205 238 218 252 182 182 241 224 222 220 207 225 225 227 226 226 227 232 212 168 233
187 177 194 197 196 195 213 220 189 221 225 228 226 223 225 225 223 224 224 220 216 215 221 221 220 222 222 227 228 228 246 243 230 207 201 203 204 152 217 189 227 229 156
137 141 157 150 156 162 175 165 125 145 161 175 146 165 163 187 194 193 183 193 134 158 153 148 155 141 167 173 188 200 197 167 203 209 209 208 198 138 183 219 223 225 182
228 214 228 231 234 234 210 208 232 233 225 221 165 205 197 196 214 164 216 178 189 175 153 168 158 166 189 215 212 222 231 202 203 175 199 148 171 226 217 208 208 220 231
Wind_Speed
66 62 62 60 59 60 52 46 49 46 58 46 53 52 47 47 42 39 36 37 37 27 36 36 37 39 38 45 42 44 46 48 47 44 47 47 47 43 43 45 43 42 48
76 65 70 87 59 56 53 53 47 51 50 55 51 42 51 47 44 42 43 39 36 30 32 31 35 43 43 43 38 52 51 47 47 49 45 46 45 41 45 45 43 46 48
78 76 75 72 60 58 57 51 49 49 52 49 56 50 40 46 46 43 45 38 35 35 33 37 40 37 47 40 45 42 48 48 49 50 51 53 55 50 49 47 46 38 54
66 73 88 62 78 60 57 56 53 55 56 56 49 46 44 48 52 55 44 42 40 47 50 71 51 45 53 52 48 60 49 46 47 42 47 56 55 47 46 47 44 48 45
61 61 88 63 70 62 61 58 56 55 57 55 53 55 47 51 52 52 51 58 45 45 42 38 57 54 52 50 51 54 56 51 49 48 44 56 51 48 45 49 44 51 54
54 54 55 55 88 76 61 58 57 59 55 55 49 46 52 64 55 50 54 52 53 39 53 53 45 57 58 52 55 50 47 52 48 48 44 48 48 50 53 52 48 45 51
56 56 57 42 56 70 61 60 55 54 53 53 53 55 53 46 61 48 58 40 40 42 48 42 41 46 58 56 51 56 54 55 46 49 52 50 48 52 57 57 59 58 52
14 22 59 58 57 56 58 59 59 56 49 48 49 53 39 69 46 51 44 58 52 53 47 49 53 57 40 67 32 31 57 55 53 53 57 48 54 55 57 59 61 65 67
14 17 56 55 57 58 56 53 56 53 48 50 54 56 60 52 65 44 52 51 34 38 41 47 45 52 54 58 60 59 60 62 57 60 59 54 56 59 52 61 36 68 69
20 2 32 54 16 54 11 55 54 50 47 49 48 49 58 50 64 56 51 46 46 55 45 49 51 59 58 58 59 61 63 62 61 55 57 58 56 51 53 67 68 75 50
22 21 15 19 44 37 50 53 49 39 46 49 49 50 50 54 46 65 57 53 57 48 50 57 55 58 62 54 69 65 64 63 63 63 59 64 67 61 68 55 68 66 61
25 27 29 27 26 37 7 50 46 21 61 50 50 45 46 43 45 48 46 47 39 53 55 46 50 55 58 58 62 61 63 61 59 60 64 69 69 70 47 69 65 66 84
17 2 41 31 30 27 28 26 7 50 45 46 43 45 46 46 46 48 51 43 51 49 46 48 52 58 64 66 65 60 60 62 69 69 67 73 59 60 78 87 90 87 69
14 10 4 21 25 22 15 8 12 10 15 50 49 48 46 50 49 46 53 56 51 51 55 59 64 67 62 56 75 103 69 68 66 70 71 71 74 75 77 80 103 54 96
20 22 4 18 17 17 10 3 4 5 26 53 51 51 49 12 56 49 56 57 48 55 59 55 27 37 39 60 62 66 68 66 70 73 78 82 104 101 65 84 99 80 73
9 11 12 7 16 38 39 41 44 46 3 52 43 46 48 53 57 55 60 57 60 52 34 22 61 63 65 66 67 71 74 103 102 127 124 121 120 117 113 108 107 113 111
11 9 9 9 6 2 10 12 9 10 7 7 11 43 9 12 18 17 51 31 43 60 61 57 37 11 17 31 57 62 29 42 43 44 84 106 109 69 62 99 116 88 95
3 9 1 3 18 2 6 5 3 1 6 6 6 26 14 15 40 59 38 41 64 23 24 30 32 31 33 19 36 16 17 19 21 33 40 32 35 39 98 96 58 68 54
2 5 5 5 3 2 2 5 8 5 10 43 11 8 7 12 57 62 21 13 16 17 21 22 23 26 24 27 28 25 23 19 16 13 11 12 18 27 32 38 44 51 64
4 7 5 4 5 7 8 7 6 6 10 22 20 14 11 20 17 17 18 24 20 13 14 19 20 22 18 18 17 11 12 7 8 6 56 16 20 25 29 33 41 46 48
8 9 11 12 12 12 13 14 15 16 19 22 17 17 17 16 19 23 21 24 25 27 45 17 23 13 25 24 18 62 64 25 60 11 13 17 23 29 33 38 42 43 47
15 16 16 17 19 17 16 17 20 18 18 19 21 22 23 23 30 27 26 24 28 26 25 42 42 28 25 22 57 26 18 37 21 22 43 57 41 29 35 40 44 49 55
9 9 10 10 9 10 10 13 13 14 14 14 15 17 19 20 21 20 20 22 23 31 33 26 31 27 40 41 29 33 34 35 40 36 38 40 44 46 49 51 61 72 61
11 13 15 16 16 17 19 19 19 22 23 23 23 25 26 27 28 28 29 30 32 33 33 33 34 34 35 34 34 34 34 37 38 50 52 54 57 56 59 61 60 64 72
27 27 28 32 32 30 28 32 38 37 31 33 37 32 33 33 36 37 40 40 40 38 43 44 48 48 46 47 45 47 49 57 49 49 51 54 58 61 65 64 67 72 76
21 22 23 25 25 27 31 31 28 29 32 34 44 38 39 41 40 47 42 48 48 49 53 52 55 54 53 50 52 51 52 54 55 61 61 75 70 63 67 71 74 77 76
Wind_Direction
231 234 232 227 225 227 226 232 242 239 245 247 245 246 253 253 245 257 247 248 258 259 266 267 267 271 262 269 277 264 274 279 284 294 298 295 279 299 294 282 279 304 295
258 239 240 246 231 237 234 245 262 241 244 246 246 246 247 253 251 250 252 253 270 258 266 266 267 258 266 271 271 275 280 288 288 288 292 288 280 272 275 299 281 301 297
253 243 246 246 244 237 239 233 234 239 239 240 246 244 263 253 252 253 263 259 255 266 270 274 277 283 276 265 257 293 286 285 283 284 274 284 281 282 283 300 291 295 284
240 251 261 236 249 244 237 232 232 241 241 244 239 249 259 252 251 255 258 262 265 265 273 248 265 280 271 271 282 263 266 277 282 268 274 278 278 277 284 295 282 286 310
234 235 261 234 243 232 245 244 234 234 238 239 236 238 254 252 252 252 253 255 263 269 273 282 266 274 282 264 293 287 282 283 273 272 272 272 275 292 303 290 306 303 289
240 236 234 237 262 249 239 239 242 244 241 241 256 266 250 245 253 257 252 255 258 268 273 274 282 264 278 287 286 289 286 282 276 274 285 286 290 294 289 301 303 306 284
237 237 235 286 239 251 238 241 248 250 245 242 244 247 258 263 251 258 255 265 269 272 274 281 284 287 275 275 278 275 277 280 285 285 281 287 294 297 288 293 297 290 301
337 267 233 233 232 235 238 240 240 241 249 248 245 250 265 243 261 259 266 259 263 263 271 276 275 263 278 266 272 281 277 277 281 289 283 292 292 298 297 296 301 285 287
27 18 233 235 237 238 237 248 246 247 250 248 249 247 251 251 254 262 261 263 266 265 280 279 283 283 280 277 274 281 285 278 282 283 279 288 292 295 300 297 292 291 287
215 232 236 237 32 239 327 243 245 249 249 249 248 250 251 256 255 261 268 276 275 274 277 277 276 271 268 277 283 282 273 270 274 289 290 291 291 296 297 294 294 281 298
62 58 61 235 236 239 241 243 254 256 253 251 250 248 249 253 261 258 259 262 265 275 275 269 270 267 267 282 266 267 277 278 276 279 286 287 288 292 291 296 294 295 299
66 60 73 77 71 66 263 250 254 49 245 250 251 250 252 263 263 260 268 267 273 265 265 279 283 283 283 283 276 281 280 282 287 290 289 287 287 290 292 294 296 299 279
68 96 233 235 71 73 73 73 82 251 258 256 258 257 257 260 263 266 267 269 270 272 271 275 278 278 273 274 275 277 279 278 274 276 284 284 291 290 288 274 273 277 289
63 77 90 79 83 79 82 81 63 265 246 257 261 263 266 267 268 268 269 268 270 272 270 270 270 271 272 275 269 260 273 273 278 278 280 282 284 285 286 279 265 293 271
229 231 116 73 77 80 77 101 155 97 253 254 260 262 266 311 266 266 270 270 271 272 271 271 265 263 255 271 272 273 274 273 275 276 277 276 262 266 284 277 272 287 282
77 69 72 50 76 242 243 245 246 249 210 255 260 264 270 271 271 271 270 271 272 269 41 287 270 270 270 270 271 272 272 248 249 256 258 260 261 262 264 264 264 266 267
83 83 85 83 78 36 76 76 78 94 102 95 239 262 7 353 293 329 272 285 277 270 270 271 278 327 277 269 270 265 226 236 235 227 249 252 255 252 252 259 260 273 271
226 277 157 114 254 71 86 102 57 318 285 281 272 267 281 285 271 267 276 282 272 319 7 28 35 60 73 55 65 80 187 194 212 215 209 216 236 244 252 255 258 263 264
156 163 139 232 108 129 133 148 269 260 266 264 277 264 277 278 270 272 287 339 350 8 353 343 25 34 35 41 51 69 79 81 94 111 138 186 217 231 238 247 255 266 276
273 293 229 251 258 257 259 254 240 282 280 269 265 261 269 269 265 270 285 298 302 326 351 12 341 10 12 23 30 35 52 52 95 175 283 243 239 242 245 248 253 258 261
266 268 280 262 264 271 274 278 284 272 265 265 282 287 292 295 293 286 301 292 299 295 274 300 291 329 288 295 346 279 280 283 276 260 245 244 245 252 257 262 266 270 273
268 275 290 291 299 295 300 296 298 301 311 310 307 307 319 318 283 299 307 295 310 305 312 278 281 300 301 298 276 281 278 271 271 270 271 277 277 271 270 269 270 270 270
357 332 315 315 328 331 324 313 309 300 299 299 299 297 299 299 297 299 300 297 298 291 292 299 294 303 286 288 291 276 274 269 271 262 260 259 259 259 262 265 267 275 273
308 296 310 309 305 302 304 298 296 301 300 293 291 290 287 286 287 286 285 287 288 287 288 287 287 288 288 284 282 279 285 281 273 271 274 275 275 297 270 285 277 278 296
267 279 290 290 291 285 288 285 261 277 280 290 285 285 284 291 286 290 287 293 284 282 281 281 280 292 288 284 282 281 281 284 277 275 274 274 277 301 279 278 278 278 287
303 293 295 293 293 291 289 291 290 288 288 288 286 284 278 283 287 287 290 287 289 287 285 288 288 288 289 281 282 281 278 282 283 287 282 288 286 277 277 276 275 276 281